GREYPAWS Weather Reports


time (UTC)temp
F
wind
direction
speed
knots
gust
knots
rain 1hr
in
rain 24hr
in
rain mn
in
humidity
%
barometer
mb
20260503060120 59 266 0.0 1.7 0.00 0.00 0.00 53 1012.1
20260503054600 59 263 0.0 1.7 0.00 0.00 0.00 53 1012.0
20260503053100 59 315 0.0 0.0 0.00 0.00 0.00 52 1011.9
20260503053010 59 315 0.0 0.0 0.00 0.00 0.00 52 1012.0
20260503051536 60 315 0.0 0.0 0.00 0.00 0.00 51 1011.9
20260503050035 61 315 0.0 0.0 0.00 0.00 0.00 49 1011.7
20260503044530 62 315 0.0 0.0 0.00 0.00 0.00 45 1011.7
20260503043018 63 315 0.0 0.0 0.00 0.00 0.00 44 1011.6
20260503041558 65 315 0.0 1.7 0.00 0.00 0.00 42 1011.4
20260503040043 67 319 0.0 1.7 0.00 0.00 0.00 39 1011.2
20260503034556 68 347 0.0 1.7 0.00 0.00 0.00 38 1011.1
20260503033056 69 333 0.0 1.7 0.00 0.00 0.00 38 1011.0
20260503031546 69 336 0.0 1.7 0.00 0.00 0.00 37 1010.8
20260503030051 70 321 0.0 1.7 0.00 0.00 0.00 37 1010.6
20260503024528 70 315 0.0 1.7 0.00 0.00 0.00 36 1010.6
20260503023022 72 333 0.0 3.5 0.00 0.00 0.00 33 1010.6
20260503021552 73 338 0.0 2.6 0.00 0.00 0.00 32 1010.5
20260503020053 73 351 0.0 2.6 0.00 0.00 0.00 31 1010.4
20260503014603 74 350 0.0 3.5 0.00 0.00 0.00 31 1010.5
20260503014502 74 355 0.0 3.5 0.00 0.00 0.00 31 1010.5
20260503013054 75 360 0.0 2.6 0.00 0.00 0.00 31 1010.6
20260503011603 76 335 0.0 2.6 0.00 0.00 0.00 30 1010.8
20260503010026 76 327 0.9 4.3 0.00 0.00 0.00 28 1010.9
20260503004525 77 5 0.9 4.3 0.00 0.00 0.00 27 1010.9
20260503003016 77 5 0.9 6.1 0.00 0.00 0.00 27 1010.9
20260503001558 78 340 1.7 5.2 0.00 0.00 0.00 27 1010.9
20260503000057 80 327 0.9 5.2 0.00 0.00 0.00 24 1010.9
20260502234533 80 13 0.0 2.6 0.00 0.00 0.00 23 1011.1
20260502233032 80 64 1.7 4.3 0.00 0.00 0.00 21 1011.2
20260502231536 81 76 0.9 5.2 0.00 0.00 0.00 23 1011.3
20260502230026 82 360 0.0 3.5 0.00 0.00 0.00 24 1011.4
20260502224521 81 5 0.0 4.3 0.00 0.00 0.00 24 1011.6
20260502223006 80 105 0.9 4.3 0.00 0.00 0.00 24 1011.8
20260502221528 79 72 0.0 4.3 0.00 0.00 0.00 25 1012.1
20260502220025 79 88 1.7 6.1 0.00 0.00 0.00 25 1012.3
20260502214519 80 340 1.7 5.2 0.00 0.00 0.00 26 1012.5
20260502213019 80 69 0.9 4.3 0.00 0.00 0.00 27 1012.8
20260502211601 79 345 1.7 5.2 0.00 0.00 0.00 26 1013.0
20260502210052 80 329 1.7 4.3 0.00 0.00 0.00 28 1013.2
20260502204546 79 41 0.0 4.3 0.00 0.00 0.00 29 1013.4
20260502203055 78 55 0.9 4.3 0.00 0.00 0.00 28 1013.5
20260502201547 77 88 1.7 6.1 0.00 0.00 0.00 28 1013.7
20260502200046 77 55 0.0 4.3 0.00 0.00 0.00 29 1014.0
20260502194542 76 67 4.3 7.8 0.00 0.00 0.00 30 1014.2
20260502193037 74 94 4.3 9.6 0.00 0.00 0.00 31 1014.4
20260502191532 74 105 0.9 7.0 0.00 0.00 0.00 31 1014.6
20260502190031 73 111 2.6 5.2 0.00 0.00 0.00 31 1014.9
20260502184557 73 80 1.7 7.0 0.00 0.00 0.00 33 1015.0
20260502183100 71 108 0.9 8.7 0.00 0.00 0.00 34 1015.4
20260502181551 69 46 0.9 5.2 0.00 0.00 0.00 34 1015.6
20260502163114 65 93 0.9 4.3 0.00 0.00 0.00 37 1016.6
20260502161534 64 125 0.0 3.5 0.00 0.00 0.00 39 1016.7
20260502151506 56 72 0.0 1.7 0.00 0.00 0.00 53 1016.6
20260502123046 44 302 0.0 1.7 0.00 0.00 0.00 76 1016.1
20260502121533 44 294 0.0 1.7 0.00 0.00 0.00 75 1016.0
20260502114536 44 284 0.0 1.7 0.00 0.00 0.00 74 1016.0
20260502113037 44 284 0.0 1.7 0.00 0.00 0.00 74 1015.9
20260502111532 44 284 0.0 1.7 0.00 0.00 0.00 73 1015.8
20260502110051 44 283 0.0 1.7 0.00 0.00 0.00 73 1015.9
20260502104528 44 265 0.0 1.7 0.00 0.00 0.00 71 1015.8
20260502103015 45 265 0.0 1.7 0.00 0.00 0.00 70 1015.7
20260502101602 45 49 0.0 0.0 0.00 0.00 0.00 68 1015.8
20260502091522 47 74 0.0 1.7 0.00 0.00 0.00 63 1015.7
20260502071516 52 86 0.0 1.7 0.00 0.00 0.00 54 1016.0